sat.trackr.live / text

‹ back to catalog

ONEWEB-0412

NORAD 50489 · 2021-132W

PAYLOAD ACTIVE UNKNOWN

§ Identity

Operator
Country
UK
Launch date
2021-12-27
Launch site
TYMSC
Launch vehicle
Mass (kg)
RCS (m²)

Purposes: comms

External: N2YO · Heavens-Above · Gunter

§ Orbital elements

Epoch: 2026-05-24T23:06:01.933632Z

Period
109.20 min
Inclination
87.9167°
Eccentricity
0.0001958
Mean motion
13.18687495 rev/d
Perigee alt
1,188.3 km
Apogee alt
1,191.2 km
Semi-major
7,567.9 km
B*
1.0607e-4
RAAN
340.0788°
Arg perigee
79.5661°
Mean anomaly
280.5691°
Rev number
21,859

§ Raw data

ONEWEB-04121 50489U 21132W   26144.96252238  .00000055  00000+0  10607-3 0  99952 50489  87.9167 340.0788 0001958  79.5661 280.5691 13.18687495218591

JSON: /api/v1/satellites/50489 · /tle

For live sub-satellite position, see the globe view (requires WebGL).

§ Visibility from observer

Set your observer location to see the next 7 days of passes ≥ 10°. The values pass through the URL so the page stays shareable.

No JS? Fill the form by hand. The geolocation button needs JavaScript.